Location: Saint-Palais-sur-Mer
(45.6429°N, 1.0859°W)
Time: 16:52:57
(UTC+01:00)

S-56A Canister/Altair - Pass Details

Date: 17 February 2026
Orbit: 633 x 2484 km, 38.9° (Epoch: 16 March)

Event Time Altitude Azimuth Distance (km) Brightness Sun altitude
Exits shadow 02:30:52 13° 99° (E) 3,753 11.1 -53.0°
Drops below altitude 10° 02:31:53 10° 98° (E) 4,074 11.3 -52.9°
Sets 02:35:56 0° 94° (E) 5,355 12.1 -52.6°
